Location: Ash Shall?l al Awwal
(24.0167°N, 32.8667°E)
Time: 20:02:05
(UTC+00:00)

Cosmos 2237 - Pass Details

Date: 02 March 2021
Orbit: 844 x 857 km, 70.9° (Epoch: 10 April)

Event Time Altitude Azimuth Distance (km) Brightness Sun altitude
Rises 16:30:22 0° 201° (SSW) 3,400 7.7 -9.6°
Reaches altitude 10° 16:32:48 10° 202° (SSW) 2,468 7.0 -10.1°
Maximum altitude 16:38:29 77° 289° (WNW) 877 4.4 -11.4°
Drops below altitude 10° 16:44:11 10° 14° (NNE) 2,485 6.5 -12.7°
Sets 16:46:39 0° 16° (NNE) 3,424 7.2 -13.3°
